| time (UTC) | temp C | wind direction | speed KPH | gust KPH | rain 1hr cm | rain 24hr cm | rain mn cm | humidity % | barometer mb |
| 20260503225535 | -6 | 91 | 25.7 | 32.2 | 0.64 | 9.53 | 0.64 | 94 | 947.5 |
| 20260503224515 | -7 | 98 | 24.1 | 33.8 | 0.64 | 9.53 | 0.64 | 93 | 947.5 |
| 20260503223515 | -7 | 99 | 25.7 | 33.8 | 0.64 | 9.53 | 0.64 | 93 | 947.3 |
| 20260503222535 | -6 | 96 | 30.6 | 41.8 | 0.64 | 9.53 | 0.64 | 92 | 947.2 |
| 20260503221516 | -6 | 103 | 29.0 | 45.1 | 0.00 | 8.89 | 0.00 | 91 | 947.1 |
| 20260503220515 | -6 | 107 | 33.8 | 48.3 | 0.00 | 8.89 | 0.00 | 90 | 947.0 |
| 20260503215515 | -7 | 104 | 38.6 | 51.5 | 0.00 | 9.53 | 0.00 | 90 | 946.9 |
| 20260503214515 | -6 | 101 | 41.8 | 57.9 | 0.00 | 9.53 | 0.00 | 90 | 946.7 |
| 20260503213515 | -7 | 104 | 38.6 | 46.7 | 0.00 | 9.53 | 0.00 | 89 | 946.8 |
| 20260503212515 | -7 | 104 | 43.5 | 59.5 | 0.00 | 9.53 | 0.00 | 89 | 946.7 |
| 20260503211515 | -7 | 103 | 41.8 | 51.5 | 0.00 | 9.53 | 0.00 | 88 | 946.8 |
| 20260503210015 | -7 | 99 | 45.1 | 61.2 | 0.00 | 9.53 | 0.00 | 91 | 946.5 |
| 20260503205015 | -8 | 100 | 40.2 | 51.5 | 0.00 | 9.53 | 9.53 | 92 | 946.9 |
| 20260503204015 | -8 | 111 | 32.2 | 43.5 | 0.00 | 9.53 | 9.53 | 94 | 947.0 |
| 20260503203015 | -8 | 109 | 24.1 | 38.6 | 0.00 | 9.53 | 9.53 | 96 | 947.5 |
| 20260503202015 | -8 | 88 | 17.7 | 38.6 | 0.61 | 9.53 | 9.53 | 98 | 947.5 |
| 20260503201015 | -8 | 103 | 8.0 | 17.7 | 0.61 | 9.53 | 9.53 | 99 | 947.6 |
| 20260503200035 | -8 | 48 | 4.8 | 6.4 | 0.61 | 9.53 | 9.53 | 100 | 947.6 |
| 20260503195035 | -8 | 326 | 6.4 | 12.9 | 0.61 | 9.53 | 9.53 | 100 | 947.5 |
| 20260503194015 | -8 | 308 | 4.8 | 9.7 | 0.61 | 9.53 | 9.53 | 100 | 947.5 |
| 20260503193036 | -8 | 348 | 3.2 | 6.4 | 0.61 | 9.53 | 9.53 | 100 | 947.5 |
| 20260503192015 | -8 | 97 | 4.8 | 9.7 | 0.00 | 8.92 | 8.92 | 99 | 947.4 |
| 20260503191035 | -7 | 129 | 6.4 | 8.0 | 0.00 | 8.92 | 8.92 | 98 | 947.4 |
| 20260503190016 | -7 | 57 | 3.2 | 8.0 | 0.00 | 8.92 | 8.92 | 99 | 947.5 |
| 20260503185056 | -7 | 57 | 8.0 | 11.3 | 0.00 | 8.92 | 8.92 | 100 | 947.5 |
| 20260503184015 | -7 | 22 | 4.8 | 9.7 | 0.00 | 8.92 | 8.92 | 100 | 947.3 |
| 20260503183035 | -7 | 31 | 6.4 | 11.3 | 0.00 | 8.92 | 8.92 | 100 | 947.2 |
| 20260503182015 | -7 | 31 | 9.7 | 17.7 | 0.00 | 8.92 | 8.92 | 99 | 947.2 |
| 20260503181016 | -7 | 32 | 4.8 | 9.7 | 0.00 | 8.92 | 8.92 | 100 | 947.3 |
| 20260503180015 | -7 | 56 | 6.4 | 12.9 | 0.00 | 8.92 | 8.92 | 100 | 947.2 |
| 20260503175015 | -7 | 73 | 9.7 | 12.9 | 0.00 | 8.92 | 8.92 | 99 | 947.2 |
| 20260503174015 | -7 | 44 | 6.4 | 11.3 | 0.00 | 8.92 | 8.92 | 100 | 947.3 |
| 20260503173015 | -7 | 0 | 4.8 | 12.9 | 0.00 | 8.92 | 8.92 | 100 | 947.2 |
| 20260503172015 | -7 | 4 | 6.4 | 16.1 | 0.00 | 8.92 | 8.92 | 100 | 947.2 |
| 20260503171036 | -6 | 12 | 9.7 | 17.7 | 0.00 | 8.92 | 8.92 | 100 | 947.1 |
| 20260503131015 | -6 | 345 | 9.7 | 20.9 | 0.61 | 8.89 | 8.86 | 99 | 947.5 |
| 20260503081016 | -8 | 84 | 17.7 | 25.7 | 6.50 | 8.26 | 7.75 | 99 | 946.2 |
| 20260503072015 | -9 | 88 | 24.1 | 35.4 | 6.50 | 8.26 | 7.75 | 98 | 945.5 |
| 20260503071015 | -9 | 86 | 24.1 | 37.0 | 0.00 | 1.75 | 1.24 | 98 | 945.5 |
| 20260503055015 | -10 | 65 | 27.4 | 43.5 | 0.00 | 8.23 | 1.24 | 98 | 944.9 |
| 20260503054015 | -10 | 57 | 24.1 | 33.8 | 0.00 | 8.26 | 1.24 | 98 | 944.8 |
| 20260503053015 | -10 | 51 | 20.9 | 32.2 | 0.00 | 8.26 | 1.24 | 98 | 944.8 |
| 20260503052015 | -10 | 56 | 22.5 | 33.8 | 0.00 | 8.26 | 1.24 | 98 | 944.8 |
| 20260503051015 | -10 | 17 | 14.5 | 27.4 | 0.00 | 8.26 | 1.24 | 98 | 944.7 |
| 20260503050015 | -10 | 39 | 14.5 | 29.0 | 0.00 | 8.26 | 1.24 | 98 | 944.7 |
| 20260503045015 | -10 | 86 | 22.5 | 33.8 | 0.00 | 8.26 | 1.24 | 97 | 944.7 |
| 20260503044015 | -10 | 93 | 30.6 | 41.8 | 0.00 | 8.26 | 1.24 | 96 | 944.4 |
| 20260503043114 | -10 | 96 | 33.8 | 45.1 | 0.00 | 8.26 | 1.24 | 97 | 944.3 |
| 20260503042015 | -10 | 74 | 22.5 | 35.4 | 0.00 | 8.26 | 1.24 | 97 | 944.6 |
| 20260503041016 | -10 | 76 | 19.3 | 32.2 | 0.00 | 8.26 | 1.24 | 98 | 944.7 |
| 20260503040015 | -10 | 65 | 20.9 | 35.4 | 0.00 | 8.26 | 1.24 | 98 | 944.6 |
| 20260503035016 | -10 | 83 | 20.9 | 32.2 | 0.61 | 8.26 | 1.24 | 97 | 944.4 |
| 20260503034015 | -10 | 92 | 29.0 | 37.0 | 0.61 | 8.26 | 1.24 | 97 | 944.2 |
| 20260503033015 | -10 | 84 | 27.4 | 38.6 | 0.61 | 8.26 | 1.24 | 97 | 944.2 |
| 20260503032015 | -10 | 93 | 32.2 | 41.8 | 0.61 | 8.26 | 1.24 | 97 | 944.2 |
| 20260503031015 | -10 | 101 | 37.0 | 53.1 | 0.61 | 8.26 | 1.24 | 97 | 944.3 |
| 20260503030015 | -10 | 90 | 30.6 | 41.8 | 0.61 | 8.26 | 1.24 | 97 | 944.3 |
| 20260503025035 | -10 | 94 | 30.6 | 43.5 | 0.00 | 7.65 | 0.64 | 97 | 944.4 |
| 20260503024036 | -10 | 82 | 29.0 | 41.8 | 0.00 | 7.65 | 0.64 | 97 | 944.5 |
| 20260503023016 | -10 | 86 | 27.4 | 40.2 | 0.00 | 7.65 | 0.64 | 97 | 944.4 |
| 20260503022016 | -10 | 86 | 30.6 | 41.8 | 0.00 | 7.65 | 0.64 | 97 | 944.5 |
| 20260503021015 | -10 | 68 | 24.1 | 41.8 | 0.00 | 7.65 | 0.64 | 97 | 944.6 |
| 20260503020015 | -9 | 63 | 17.7 | 33.8 | 0.00 | 8.26 | 0.64 | 98 | 944.8 |
| 20260503015014 | -9 | 49 | 20.9 | 37.0 | 0.00 | 8.26 | 0.64 | 98 | 944.7 |
| 20260503014015 | -8 | 42 | 16.1 | 30.6 | 0.00 | 8.26 | 0.64 | 99 | 944.8 |
| 20260503013036 | -8 | 44 | 11.3 | 25.7 | 0.00 | 8.26 | 0.64 | 99 | 944.8 |
| 20260503012016 | -8 | 19 | 9.7 | 19.3 | 0.00 | 8.26 | 0.64 | 100 | 944.9 |
| 20260503011015 | -8 | 39 | 12.9 | 27.4 | 0.00 | 8.26 | 0.64 | 100 | 944.9 |
| 20260503010015 | -8 | 45 | 12.9 | 27.4 | 0.00 | 8.26 | 0.64 | 100 | 944.9 |
| 20260503005015 | -8 | 47 | 16.1 | 27.4 | 0.00 | 8.26 | 0.64 | 100 | 944.9 |
| 20260503004015 | -8 | 49 | 16.1 | 29.0 | 0.00 | 8.84 | 0.64 | 100 | 945.1 |
| 20260503003015 | -8 | 70 | 20.9 | 32.2 | 0.00 | 8.84 | 0.64 | 100 | 945.0 |
| 20260503002015 | -8 | 80 | 12.9 | 24.1 | 0.00 | 8.84 | 0.64 | 100 | 945.0 |
| 20260503001015 | -7 | 66 | 19.3 | 33.8 | 0.00 | 8.84 | 0.64 | 100 | 945.2 |
| 20260503000015 | -7 | 66 | 19.3 | 30.6 | 0.00 | 8.84 | 0.64 | 100 | 945.1 |
| 20260502235015 | -7 | 71 | 14.5 | 22.5 | 0.00 | 8.84 | 0.64 | 100 | 945.3 |
| 20260502234015 | -7 | 56 | 12.9 | 22.5 | 0.00 | 8.84 | 0.64 | 100 | 945.4 |
| 20260502233015 | -7 | 59 | 12.9 | 24.1 | 0.00 | 8.84 | 0.64 | 100 | 945.5 |
| 20260502232015 | -7 | 63 | 16.1 | 25.7 | 0.00 | 8.84 | 0.64 | 100 | 945.8 |
| 20260502231034 | -7 | 65 | 16.1 | 22.5 | 0.00 | 8.84 | 0.64 | 100 | 945.9 |
| 20260502230015 | -7 | 70 | 17.7 | 27.4 | 0.03 | 8.84 | 0.64 | 100 | 945.9 |